SB KEPS @ AMSAT $ORB08262.N 2Line Orbital Elements 08262.AMSAT
HR AMSAT ORBITAL ELEMENTS FOR AMATEUR SATELLITES IN NASA FORMAT FROM WA5QGD FORT WORTH,TX September 18, 2008 Send Subscribe/unsubscribe to KEPS at http://www.amsat.org/mailman/listinfo/keps BID: ORB08262.N
DECODE 2-LINE ELSETS WITH THE FOLLOWING KEY: 1 AAAAAU 00 0 0 BBBBB.BBBBBBBB .CCCCCCCC 00000-0 00000-0 0 DDDZ 2 AAAAA EEE.EEEE FFF.FFFF GGGGGGG HHH.HHHH III.IIII JJ.JJJJJJJJKKKKKZ KEY: A-CATALOGNUM B-EPOCHTIME C-DECAY D-ELSETNUM E-INCLINATION F-RAAN G-ECCENTRICITY H-ARGPERIGEE I-MNANOM J-MNMOTION K-ORBITNUM Z-CHECKSUM
TO ALL RADIO AMATEURS BT
AO-07 1 07530U 74089B 08262.58738398 -.00000027 00000-0 10000-3 0 2810 2 07530 101.4602 290.9391 0012191 079.3992 280.8456 12.53574160548685 AO-10 1 14129U 83058B 08260.96983758 -.00000096 00000-0 10000-3 0 5617 2 14129 026.0330 195.2478 5964420 157.6305 246.2422 02.05869325189994 UO-11 1 14781U 84021B 08262.50698165 -.00000060 00000-0 -76635-6 0 7702 2 14781 098.1473 297.9001 0010006 128.9428 231.2641 14.79663596317651 RS-15 1 23439U 94085A 08261.69659202 -.00000039 00000-0 10000-3 0 01868 2 23439 064.8186 345.4540 0146265 104.9475 256.7691 11.27552769565394 FO-29 1 24278U 96046B 08262.74536038 -.00000072 00000-0 -35005-4 0 8607 2 24278 098.5774 166.7604 0350529 333.5253 024.8344 13.52939763597041 SO-33 1 25509U 98061B 08261.94602420 .00000051 00000-0 -13258-5 0 02847 2 25509 031.4287 151.8672 0354460 118.2881 245.3978 14.28224519516883 AO-40 1 26609U 00072B 08261.15347167 -.00000356 00000-0 10000-3 0 01219 2 26609 007.8057 060.3522 7935485 123.8033 337.0196 01.25586612036195 VO-52 1 28650U 05017B 08261.59982595 -.00000266 00000-0 -27062-4 0 00340 2 28650 097.7818 325.6333 0026786 197.1448 162.8864 14.81496822182282 PO-63 1 29712U 07001D 08262.57754734 .00000375 00000-0 55950-4 0 8069 2 29712 097.8675 318.9740 0015431 078.3546 281.9404 14.80266975 91280 AO-16 1 20439U 90005D 08262.50375341 -.00000015 00000-0 95965-5 0 4203 2 20439 098.2412 237.8448 0009942 259.3018 100.7044 14.31802760974271 LO-19 1 20442U 90005G 08262.46572843 .00000046 00000-0 32313-4 0 3432 2 20442 098.2097 246.0569 0010982 255.1572 104.8407 14.32041066974425 AO-27 1 22825U 93061C 08261.54023401 .00000028 00000-0 27527-4 0 00644 2 22825 098.3955 218.1442 0008423 355.0274 005.0817 14.29246919780963 IO-26 1 22826U 93061D 08261.50820347 -.00000006 00000-0 14156-4 0 07777 2 22826 098.3874 218.9809 0008936 350.9333 009.1686 14.29496384781051 GO-32 1 25397U 98043D 08261.84543962 .00000062 00000-0 45716-4 0 07014 2 25397 098.3575 292.4011 0001330 014.0649 346.0574 14.23148497529395 NO-44 1 26931U 01043C 08261.91796002 .00000021 00000-0 40356-4 0 09816 2 26931 067.0529 045.7662 0007223 264.4929 095.5379 14.29533153363660 SO-50 1 27607U 02058C 08262.18974054 .00000004 00000-0 22749-4 0 7016 2 27607 064.5582 131.1871 0086184 261.4524 097.6804 14.71380260308655 CO-55 1 27844U 03031E 08261.91522717 .00000044 00000-0 40772-4 0 03988 2 27844 098.7182 268.9042 0009203 204.8394 155.2338 14.20596631270606 CO-57 1 27848U 03031J 08261.92580863 .00000030 00000-0 34196-4 0 03493 2 27848 098.7190 267.9948 0009086 210.2493 149.8169 14.20404590270572 AO-51 1 28375U 04025K 08261.63268576 -.00000003 00000-0 12013-4 0 2006 2 28375 098.0679 280.9900 0082861 232.5132 126.8508 14.40618205221711 CO-56 1 28941U 06005C 08262.46143564 .00026099 26060-5 17485-3 0 3870 2 28941 098.1162 026.2675 0152462 061.3542 300.3024 15.61386238144578 CP3 1 31128U 07012M 08261.88543061 -.00000046 00000-0 00000-0 0 04364 2 31128 098.0306 321.3630 0103832 048.7249 312.2831 14.51974742075389 CP4 1 31132U 07012Q 08262.81586098 .00000133 00000-0 39579-4 0 4150 2 31132 098.0350 324.8712 0086280 038.6809 322.0526 14.55143069 75563 CO-65 1 32785U 08021C 08262.67022862 .00000062 00000-0 14831-4 0 1617 2 32785 097.9846 322.3197 0014627 188.3932 171.7041 14.81391671 21242 NOAA-10 1 16969U 86073A 08262.10576547 -.00000025 00000-0 82075-5 0 2929 2 16969 098.7183 283.8754 0011482 271.8124 088.1758 14.27368119144690 NOAA-11 1 19531U 88089A 08262.30221757 .00000228 00000-0 14048-3 0 3229 2 19531 098.7969 350.3208 0011671 159.6624 200.5055 14.14878093 31072 NOAA-12 1 21263U 91032A 08262.55259552 .00000022 00000-0 28090-4 0 8384 2 21263 098.7718 264.5155 0011691 211.4769 148.5712 14.25546413901690 MET-3/5 1 21655U 91056A 08261.95168985 .00000051 00000-0 10000-3 0 05499 2 21655 082.5516 038.8292 0014032 136.8527 223.3698 13.17016928821790 MET-2/21 1 22782U 93055A 08262.78414730 .00000019 00000-0 36610-5 0 2539 2 22782 082.5483 037.3106 0023384 031.0973 329.1557 13.83630923760076 OKEAN-4 1 23317U 94066A 08262.73233063 .00000007 00000-0 -21360-5 0 6976 2 23317 082.5375 227.7716 0022152 174.3312 185.8165 14.82634503752142 NOAA-14 1 23455U 94089A 08262.40263701 .00000221 00000-0 14059-3 0 3081 2 23455 098.9397 334.6649 0008713 237.4645 122.5726 14.13748856707524 NOAA-15 1 25338U 98030A 08262.55173343 -.00000045 00000-0 -84500-6 0 6249 2 25338 098.5624 252.0732 0011452 125.9565 234.2665 14.24724618538096 RESURS 1 25394U 98043A 08261.70716982 -.00000002 00000-0 17159-4 0 00333 2 25394 098.3765 301.4114 0001013 329.7074 030.4047 14.24170327529616 FENGYUN1 1 25730U 99025A 08261.95306548 .00000261 00000-0 17916-3 0 06138 2 25730 098.7296 234.6237 0019755 267.8308 092.0599 14.07779042482018 OKEAN-0 1 25860U 99039A 08262.55445388 .00000024 00000-0 10928-4 0 4750 2 25860 097.7588 249.0117 0001365 037.7348 322.3957 14.73536073493149 NOAA-16 1 26536U 00055A 08262.49814797 -.00000252 00000-0 -11084-3 0 987 2 26536 099.1651 253.7571 0010171 328.6803 031.3751 14.12495750411942 NOAA-17 1 27453U 02032A 08262.43460844 .00000128 00000-0 74320-4 0 946 2 27453 098.5260 324.3202 0011746 191.5716 168.5242 14.24002941324079 NOAA-18 1 28654U 05018A 08262.43081191 -.00000153 00000-0 -60463-4 0 5815 2 28654 098.8734 202.2353 0015356 052.1679 308.0879 14.11192241171621 HUBBLE 1 20580U 90037B 08262.80185450 .00000303 00000-0 10560-4 0 2235 2 20580 028.4674 072.6299 0003532 294.7571 065.2652 15.00407993809057 PO-34 1 25520U 98064B 08261.41866736 .00000300 00000-0 50234-5 0 00914 2 25520 028.4605 281.2785 0005609 209.4350 150.5929 15.17228212547184 ISS 1 25544U 98067A 08262.49137262 .00007507 00000-0 60411-4 0 2776 2 25544 051.6418 257.8410 0006802 124.7476 014.0381 15.72120259563219 CO-58 1 28895U 05043F 08261.72965043 .00000119 00000-0 34500-4 0 01233 2 28895 098.0850 153.4966 0019005 118.5294 241.7828 14.59696608153985 FALCON 1 30776U 07006E 08261.50854476 .00000256 00000-0 21659-4 0 04122 2 30776 035.4353 313.5609 0001157 032.2213 327.8574 15.03051831084041 MAST 1 31126U 07012K 08262.38626663 -.00000077 00000-0 -68352-5 0 4216 2 31126 098.0316 323.0535 0095351 043.6899 317.1841 14.53444478 75556 CAPE1 1 31130U 07012P 08262.63720210 .00000128 00000-0 40385-4 0 4076 2 31130 098.0326 322.0920 0103694 046.5214 314.4527 14.51991989 75285 COMPASS 1 32787U 08021E 08261.71912001 .00000071 00000-0 15880-4 0 01565 2 32787 097.9816 321.3066 0015535 193.2469 166.8337 14.81459963021101 AAUSAT2 1 32788U 08021F 08261.91124263 -.00000154 00000-0 -12768-4 0 01615 2 32788 097.9805 321.5152 0015210 192.2994 167.7841 14.81570322021136 DO-64 1 32789U 08021G 08262.73303867 .00000385 00000-0 55901-4 0 1605 2 32789 097.9837 322.3689 0015612 189.2809 170.8115 14.81473517 21253 CO-66 1 32791U 08021J 08261.73275305 .00000118 00000-0 21933-4 0 01570 2 32791 097.9832 321.3393 0015739 191.2816 168.8046 14.81313914021077 RS-30 1 32953U 08025A 08261.89287637 .00000010 00000-0 00000-0 0 01122 2 32953 082.4966 065.9301 0019799 054.4933 305.7997 12.42997489014567 /EX
participants (1)
-
Ray Hoad